Location: Rounton
(54.4000°N, 1.3500°W)
Time: 23:30:26
(UTC+01:00)

Transit 2A Rocket - Visible Passes

Search period start: 03 October 2024 00:00
Search period end: 13 October 2024 00:00
Orbit: 582 x 909 km, 66.7° (Epoch: 02 October)

Date Brightness Start Highest point End Pass type
(mag) Time Alt. Az. Time Alt. Az. Time Alt. Az.
03 Oct 7.2 00:54:54 10° NW 00:59:48 25° N 01:04:29 10° ENE visible
03 Oct 6.5 02:38:23 10° NW 02:43:52 37° NNE 02:48:59 10° E visible
03 Oct 5.0 04:21:07 10° NW 04:26:58 80° SW 04:32:17 10° SE visible
03 Oct 6.3 06:04:45 10° WNW 06:08:34 19° WSW 06:12:11 10° SSW visible
03 Oct 5.2 20:41:42 10° SSW 20:47:46 78° SE 20:53:48 10° NE visible
03 Oct 6.5 22:25:07 10° W 22:30:50 39° NNW 22:36:24 10° NE visible
04 Oct 7.2 00:09:55 10° WNW 00:14:51 25° N 00:17:34 18° NNE visible
04 Oct 7.1 01:53:50 10° NW 02:02:39 16° ENE 02:03:59 10° E visible
04 Oct 5.3 03:36:39 10° NW 03:42:50 70° ENE 03:47:52 10° SE visible
04 Oct 5.8 05:22:59 25° W 05:24:34 29° WSW 05:29:04 10° S visible
04 Oct 5.4 19:57:32 10° SSW 20:03:25 54° ESE 20:09:17 10° NE visible
04 Oct 6.1 21:40:11 10° WSW 21:46:07 50° NW 21:51:56 10° NE visible
04 Oct 7.1 23:24:50 10° WNW 23:29:54 27° NNW 23:32:48 19° NNE visible
05 Oct 7.2 01:09:09 10° NW 01:12:30 24° NNW 01:12:30 24° NNW visible
05 Oct 7.8 02:52:10 10° NW 03:03:59 - ESE 02:52:13 10° NW visible
05 Oct 6.7 04:44:02 18° S 04:44:02 18° S 04:45:25 10° S visible
05 Oct 5.9 19:13:42 10° S 19:19:11 37° ESE 19:24:40 10° NE visible
05 Oct 5.6 20:55:26 10° SW 21:01:30 67° NW 21:07:29 10° NE visible
05 Oct 7.0 22:39:42 10° W 22:45:01 30° NNW 22:48:51 16° NNE visible
06 Oct 7.2 00:24:20 10° NW 00:28:35 25° N 00:28:35 25° N visible
06 Oct 7.7 02:07:41 10° NW 02:08:18 13° NW 02:08:18 13° NW visible
06 Oct 5.3 20:10:52 10° SW 20:16:59 89° SE 20:23:02 10° NE visible
06 Oct 6.7 21:54:36 10° W 22:00:11 36° NNW 22:05:07 12° NE visible
06 Oct 7.2 23:39:23 10° NW 23:44:17 25° N 23:44:52 24° N visible
07 Oct 7.6 01:23:07 10° NW 01:24:36 17° NNW 01:24:36 17° NNW visible
07 Oct 5.4 19:26:35 10° SSW 19:32:34 64° SE 19:38:31 10° NE visible
07 Oct 6.3 21:09:35 10° WSW 21:15:25 45° NNW 21:21:07 10° NE visible
07 Oct 7.1 22:54:19 10° WNW 22:59:19 26° N 23:01:14 22° NNE visible
08 Oct 7.4 00:38:29 10° NW 00:40:59 21° NNW 00:40:59 21° NNW visible
08 Oct 5.9 20:24:43 10° WSW 20:30:44 59° NW 20:36:39 10° NE visible
08 Oct 7.0 22:09:10 10° WNW 22:14:23 28° NNW 22:17:39 18° NNE visible
08 Oct 7.3 23:53:42 10° NW 23:57:24 24° N 23:57:24 24° N visible
09 Oct 7.9 01:36:54 10° NW 01:37:09 11° NW 01:37:09 11° NW visible
09 Oct 5.5 19:40:03 10° SW 19:46:09 80° NW 19:52:10 10° NE visible
09 Oct 6.8 21:24:01 10° W 21:29:29 33° NNW 21:34:06 13° NE visible
09 Oct 7.1 23:08:47 10° NW 23:13:38 25° N 23:13:51 25° N visible
10 Oct 7.7 00:52:21 10° NW 00:53:36 16° NNW 00:53:36 16° NNW visible
10 Oct 5.4 18:55:37 10° SSW 19:01:40 74° SE 19:07:40 10° NE visible
10 Oct 6.5 20:38:57 10° W 20:44:40 41° NNW 20:50:14 10° NE visible
10 Oct 7.1 22:23:44 10° WNW 22:28:39 25° N 22:30:19 22° NNE visible
11 Oct 7.5 00:07:43 10° NW 00:10:04 20° NNW 00:10:04 20° NNW visible
11 Oct 6.1 19:53:59 10° WSW 19:59:56 52° NW 20:05:44 10° NE visible
11 Oct 7.0 21:38:35 10° WNW 21:43:41 27° NNW 21:46:48 18° NNE visible
11 Oct 7.2 23:22:58 10° NW 23:26:33 24° N 23:26:33 24° N visible
12 Oct 7.9 01:06:02 10° NW 01:06:18 11° NW 01:06:18 11° NW visible
12 Oct 5.7 19:09:12 10° SW 19:15:17 70° NW 19:21:15 10° NE visible
12 Oct 6.9 20:53:25 10° W 20:58:45 31° NNW 21:03:16 13° NE visible
12 Oct 7.0 22:38:06 10° NW 22:42:56 25° N 22:43:02 25° N visible
